Weather History for Elefsis, Greece

Change the Weather History Date:

Friday, March 1, 2013

  Actual Average Record
Temperature  
Mean Temperature 49 °F -  
Max Temperature 57 °F 59 °F 69 °F (2002)
Min Temperature 41 °F 43 °F 32 °F (2009)
Degree Days  
Heating Degree Days 16    
Moisture  
Dew Point 37 °F    
Average Humidity 63    
Maximum Humidity 81    
Minimum Humidity 47    
Precipitation  
Precipitation 0.00 in - - ()
Sea Level Pressure  
Sea Level Pressure 30.08 in    
Wind  
Wind Speed 3 mph ()    
Max Wind Speed 9 mph    
Max Gust Speed -    
Visibility 6.2 miles    
Events      
Averages and records for this station are not official NWS values.
T = Trace of Precipitation, MM = Missing Value Source: Averaged Metar Reports

Daily Weather History Graph

Daily Weather History Graph

Search for Another Location

Airport:

Trip Planner

Search our weather history database for the weather conditions in past years. The results will help you decide how hot, cold, wet, or windy it might be!

Date:

Astronomy

Mar. 01, 2013 Rise Set
Actual Time 6:57 AM EET 6:19 PM EET
Civil Twilight 6:31 AM EET 6:45 PM EET
Nautical Twilight 6:00 AM EET 7:16 PM EET
Astronomical Twilight 5:30 AM EET 7:46 PM EET
Moon 10:26 PM EET (3/1) 8:36 AM EET (3/1)
Length of Visible Light 12h 14m
Length of Day
11h 21m
Waning Gibbous, 86% of the Moon is Illuminated
Mar 1
Waning Gibbous
Mar 4
Last Quarter
Mar 11
New
Mar 19
First Quarter
Mar 27
Full

Hourly Weather History & Observations

Time (EET) Temp. Windchill Dew Point Humidity Pressure Visibility Wind Dir Wind Speed Gust Speed Precip Events Conditions
12:50 AM 46.4 °F - 35.6 °F 66% 30.18 in 6.2 mi Calm Calm - N/A   Partly Cloudy
1:50 AM 44.6 °F 42.2 °F 35.6 °F 71% 30.18 in 6.2 mi NNW 4.6 mph - N/A   Partly Cloudy
2:50 AM 44.6 °F - 35.6 °F 71% 30.15 in 6.2 mi Calm Calm - N/A   Partly Cloudy
3:50 AM 44.6 °F 42.2 °F 35.6 °F 71% 30.15 in 6.2 mi NNW 4.6 mph - N/A   Partly Cloudy
4:50 AM 44.6 °F 41.4 °F 35.6 °F 71% 30.15 in 6.2 mi NW 5.8 mph - N/A   Partly Cloudy
5:20 AM 44.6 °F - 35.6 °F 71% 30.15 in 6.2 mi Calm Calm - N/A   Partly Cloudy
5:50 AM 44.6 °F 41.4 °F 33.8 °F 66% 30.12 in - NW 5.8 mph - N/A   Clear
6:20 AM 44.6 °F 41.4 °F 33.8 °F 66% 30.12 in - NW 5.8 mph - N/A   Clear
6:50 AM 44.6 °F - 33.8 °F 66% 30.12 in - Calm Calm - N/A   Clear
7:20 AM 41.0 °F - 33.8 °F 76% 30.12 in - Calm Calm - N/A   Clear
7:50 AM 42.8 °F 40.1 °F 35.6 °F 76% 30.12 in - NNW 4.6 mph - N/A   Clear
8:20 AM 46.4 °F 43.5 °F 37.4 °F 71% 30.12 in - NNW 5.8 mph - N/A   Clear
8:50 AM 48.2 °F - 37.4 °F 66% 30.12 in - Calm Calm - N/A   Clear
9:20 AM 50.0 °F - 37.4 °F 62% 30.12 in - Calm Calm - N/A   Clear
9:50 AM 50.0 °F - 37.4 °F 62% 30.12 in - Calm Calm - N/A   Clear
10:20 AM 51.8 °F - 37.4 °F 58% 30.12 in - Calm Calm - N/A   Clear
10:50 AM 53.6 °F - 37.4 °F 54% 30.12 in 6.2 mi Calm Calm - N/A   Partly Cloudy
11:20 AM 53.6 °F - 37.4 °F 54% 30.12 in 6.2 mi Variable 3.5 mph - N/A   Partly Cloudy
11:50 AM 55.4 °F - 37.4 °F 51% 30.09 in 6.2 mi South 5.8 mph - N/A   Partly Cloudy
12:20 PM 55.4 °F - 35.6 °F 47% 30.09 in 6.2 mi SSW 6.9 mph - N/A   Partly Cloudy
12:50 PM 55.4 °F - 37.4 °F 51% 30.09 in 6.2 mi South 9.2 mph - N/A   Partly Cloudy
1:20 PM 55.4 °F - 37.4 °F 51% 30.09 in 6.2 mi SSW 9.2 mph - N/A   Partly Cloudy
1:50 PM 55.4 °F - 37.4 °F 51% 30.06 in 6.2 mi South 5.8 mph - N/A   Partly Cloudy
2:20 PM 57.2 °F - 37.4 °F 48% 30.06 in 6.2 mi SSW 4.6 mph - N/A   Partly Cloudy
2:50 PM 57.2 °F - 39.2 °F 51% 30.04 in 6.2 mi SSW 5.8 mph - N/A   Partly Cloudy
3:20 PM 57.2 °F - 39.2 °F 51% 30.04 in 6.2 mi SSW 4.6 mph - N/A   Partly Cloudy
3:50 PM 57.2 °F - 39.2 °F 51% 30.06 in 6.2 mi SSW 6.9 mph - N/A   Partly Cloudy
4:20 PM 57.2 °F - 39.2 °F 51% 30.06 in 6.2 mi South 6.9 mph - N/A   Partly Cloudy
4:50 PM 55.4 °F - 39.2 °F 54% 30.04 in 6.2 mi South 6.9 mph - N/A   Partly Cloudy
5:20 PM 55.4 °F - 39.2 °F 54% 30.04 in 6.2 mi South 5.8 mph - N/A   Partly Cloudy
5:50 PM 53.6 °F - 39.2 °F 58% 30.04 in 6.2 mi South 5.8 mph - N/A   Partly Cloudy
6:20 PM 53.6 °F - 37.4 °F 54% 30.04 in 6.2 mi Calm Calm - N/A   Partly Cloudy
6:50 PM 51.8 °F - 37.4 °F 58% 30.01 in - Calm Calm - N/A   Clear
7:20 PM 50.0 °F - 37.4 °F 62% 30.01 in - Calm Calm - N/A   Clear
7:50 PM 48.2 °F - 39.2 °F 71% 30.01 in 6.2 mi Calm Calm - N/A   Partly Cloudy
8:20 PM 48.2 °F - 39.2 °F 71% 30.01 in 6.2 mi Calm Calm - N/A   Partly Cloudy
8:50 PM 46.4 °F - 37.4 °F 71% 30.01 in 6.2 mi Calm Calm - N/A   Partly Cloudy
9:20 PM 44.6 °F - 37.4 °F 76% 30.01 in 6.2 mi Calm Calm - N/A   Partly Cloudy
9:50 PM 44.6 °F - 37.4 °F 76% 30.04 in 6.2 mi Calm Calm - N/A   Partly Cloudy
10:20 PM 42.8 °F - 37.4 °F 81% 30.04 in 6.2 mi Calm Calm - N/A   Partly Cloudy
10:50 PM 42.8 °F 39.3 °F 37.4 °F 81% 30.04 in 6.2 mi NNW 5.8 mph - N/A   Partly Cloudy
11:50 PM 42.8 °F 39.3 °F 35.6 °F 76% 30.01 in 6.2 mi NNW 5.8 mph - N/A   Partly Cloudy